www.pogodaiklimat.ru

Погода и климат >> Архив погоды >> Австралия >> Южная Австралия >> Кубер-Педи


ПОГОДА в Кубер-Педи

  • Прогноз погоды в Кубер-Педи
  • Монитор погоды в Кубер-Педи

АРХИВ ПОГОДЫ в Кубер-Педи

Время (UTC), дата Ветер
(напр.,м/с)
 
Видим.   Явления Облачность Т
(С)
Тd
(С)
f
(%)
Тe
(С)
Тes
(С)
Комфортность P
(гПа)
Po
(гПа)
Тmin
(С)
Tmax
(С)
R
(мм)
R24
(мм)
S
(см)
22 16.01 С 5 н/о н/о +35.0 +30 +30 жарко 1006.0 980.8
23 16.01 С 9 н/о н/о +38.5 +33 +33 жарко 1006.0 980.8
00 17.01 С 10 н/о н/о +39.7 +35 +35 очень
жарко
1005.9 980.7
02 17.01 С 9 н/о н/о +43.1 +38 +38 очень
жарко
1004.9 979.8
01 17.01 С 10 н/о н/о +41.9 +37 +37 очень
жарко
1005.7 980.5
03 17.01 С 8 н/о н/о +42.4 +37 +37 очень
жарко
1004.4 979.3
04 17.01 С 7 н/о н/о +43.7 +39 +39 очень
жарко
1003.4 978.3
05 17.01 СВ 8 н/о н/о +43.3 +38 +38 очень
жарко
1002.5 977.4
06 17.01 С 4 н/о н/о +45.0 +40 +40 очень
жарко
1001.6 976.5
08 17.01 С 5 н/о н/о +43.7 +39 +39 очень
жарко
1000.7 975.7
07 17.01 СВ 4 н/о н/о +44.5 +39 +39 очень
жарко
1001.1 976.1
09 17.01 СВ 4 н/о н/о +43.6 +39 +39 очень
жарко
1000.7 975.7
10 17.01 СВ 2 н/о н/о +42.2 +37 +37 очень
жарко
1000.9 975.9
11 17.01 В 3 н/о н/о +40.3 +35 +35 очень
жарко
1001.7 976.6
12 17.01 Ю 12 н/о н/о +38.1 -27.0 1 +33 +33 жарко 1002.4 977.3
14 17.01 Ю 8 н/о н/о +36.5 +31 +31 жарко 1003.2 978.1
13 17.01 ЮВ 7 н/о н/о +36.9 -27.7 1 +32 +32 жарко 1003.2 978.1
15 17.01 ЮВ 5 н/о н/о +35.8 +31 +31 жарко 1003.5 978.4
16 17.01 Ю 7 н/о н/о +34.7 +29 +29 жарко 1003.1 978.0
17 17.01 ЮВ 9 н/о н/о +33.8 +29 +29 жарко 1002.2 977.1
18 17.01 Ю 12 н/о н/о +32.4 -30.3 1 +27 +27 жарко 1004.0 978.9
20 17.01 Ю 9 н/о н/о +31.4 -30.9 1 +26 +26 жарко 1005.2 980.0
19 17.01 Ю 7 н/о н/о +31.5 -30.9 1 +26 +26 жарко 1005.0 979.9
21 17.01 Ю 11 н/о н/о +30.3 -31.6 1 +25 +25 комфорт 1005.2 980.0
22 17.01 Ю 9 н/о н/о +30.2 -31.6 1 +25 +25 комфорт 1006.8 981.6
23 17.01 Ю 13 н/о н/о +29.9 -31.8 1 +25 +25 комфорт 1006.2 981.0
00 18.01 Ю 12 н/о н/о +31.4 -30.9 1 +26 +26 жарко 1007.3 982.1
02 18.01 Ю 14 н/о н/о +33.5 -29.7 1 +28 +28 жарко 1008.1 982.9
01 18.01 Ю 13 н/о н/о +31.2 -31.0 1 +26 +26 жарко 1007.4 982.2
03 18.01 Ю 12 н/о н/о +34.6 -29.0 1 +29 +29 жарко 1008.5 983.3
04 18.01 Ю 10 н/о н/о +33.1 -29.9 1 +28 +28 жарко 1008.9 983.7
05 18.01 Ю 7 н/о н/о +32.4 -30.3 1 +27 +27 жарко 1008.9 983.7
06 18.01 ЮЗ 8 н/о н/о +34.6 -29.0 1 +29 +29 жарко 1008.2 983.0
08 18.01 ЮЗ 9 н/о н/о +31.9 -23.1 2 +27 +27 жарко 1009.7 984.4
07 18.01 ЮЗ 8 н/о н/о +32.8 -30.1 1 +28 +28 жарко 1008.6 983.4
09 18.01 ЮЗ 9 н/о н/о +31.2 -23.6 2 +26 +26 жарко 1011.0 985.7
10 18.01 Ю 11 н/о н/о +30.5 -31.4 1 +25 +25 комфорт 1010.3 985.0
11 18.01 Ю 7 н/о н/о +30.4 +25 +25 комфорт 1012.0 986.7
12 18.01 Ю 6 н/о н/о +30.1 -31.7 1 +25 +25 комфорт 1012.5 987.2
14 18.01 Ю 9 н/о н/о +28.7 +17.6 51 +33 +33 очень
душно
1012.6 987.3
13 18.01 Ю 7 н/о н/о +29.3 -32.2 1 +24 +24 комфорт 1012.5 987.2
15 18.01 Ю 10 н/о н/о +28.7 +15.9 46 +32 +32 душно 1012.6 987.3
16 18.01 ЮВ 10 н/о н/о +28.0 +11.5 36 +29 +29 жарко 1013.3 987.9
17 18.01 Ю 9 н/о н/о +27.3 +23 +23 комфорт 1012.9 987.6
18 18.01 Ю 8 н/о н/о +25.4 +12.3 44 +27 +27 жарко 1012.3 987.0
20 18.01 Ю 9 н/о н/о +24.4 -4.8 14 +22 +22 комфорт 1013.7 988.3
19 18.01 Ю 7 н/о н/о +25.0 +12.6 46 +27 +27 жарко 1013.2 987.8
21 18.01 Ю 10 н/о н/о +23.9 +11.6 46 +25 +25 комфорт 1014.2 988.8
22 18.01 Ю 10 н/о н/о +24.6 +10.8 42 +26 +26 жарко 1015.2 989.8
23 18.01 Ю 10 н/о н/о +26.8 +10.1 35 +27 +27 жарко 1015.6 990.2
00 19.01 Ю 10 н/о н/о +28.5 -17.4 4 +24 +24 комфорт 1015.7 990.3
02 19.01 Ю 9 н/о н/о +33.3 +12.3 28 +34 +34 очень
жарко
1014.8 989.4
01 19.01 Ю 10 н/о н/о +30.8 +11.7 31 +31 +31 жарко 1015.6 990.2
03 19.01 ЮВ 10 н/о н/о +35.2 +12.8 26 +35 +35 очень
жарко
1014.1 988.7
04 19.01 ЮВ 9 н/о н/о +36.7 +12.2 23 +36 +36 очень
жарко
1013.6 988.2
05 19.01 ЮВ 9 н/о н/о +36.3 +11.9 23 +36 +36 очень
жарко
1013.2 987.8
06 19.01 ЮВ 8 н/о н/о +37.5 +10.7 20 +36 +36 очень
жарко
1012.6 987.3
08 19.01 Ю 12 н/о н/о +36.7 +10.1 20 +35 +35 очень
жарко
1011.9 986.6
07 19.01 ЮВ 9 н/о н/о +37.5 +10.7 20 +36 +36 очень
жарко
1012.1 986.8
09 19.01 Ю 11 н/о н/о +35.5 +9.1 20 +34 +34 очень
жарко
1012.5 987.2
10 19.01 Ю 11 н/о н/о +33.7 +9.0 22 +32 +32 жарко 1013.4 988.0
11 19.01 Ю 11 н/о н/о +32.6 +7.4 21 +31 +31 жарко 1014.1 988.7
12 19.01 Ю 10 н/о н/о +32.1 +5.6 19 +30 +30 жарко 1014.6 989.2
14 19.01 Ю 11 н/о н/о +30.7 +4.4 19 +29 +29 жарко 1014.7 989.3
13 19.01 Ю 12 н/о н/о +31.6 +2.7 16 +29 +29 жарко 1014.7 989.3
15 19.01 ЮВ 12 н/о н/о +29.4 +6.1 23 +28 +28 жарко 1014.4 989.0
16 19.01 Ю 9 н/о н/о +28.3 +5.8 24 +27 +27 жарко 1014.5 989.1
17 19.01 ЮВ 9 н/о н/о +27.8 +4.8 23 +27 +27 жарко 1014.1 988.7
18 19.01 ЮВ 8 н/о н/о +27.3 +5.6 25 +26 +26 жарко 1014.2 988.8
20 19.01 Ю 8 н/о н/о +25.8 +7.4 31 +26 +26 жарко 1014.0 988.6
19 19.01 ЮВ 8 н/о н/о +26.5 +7.0 29 +26 +26 жарко 1014.2 988.8
21 19.01 ЮВ 6 н/о н/о +25.6 +7.2 31 +26 +26 жарко 1014.8 989.4
22 19.01 ЮВ 8 н/о н/о +26.8 +7.3 29 +26 +26 жарко 1015.0 989.6
23 19.01 ЮВ 8 н/о н/о +28.6 +7.2 26 +28 +28 жарко 1015.0 989.6
00 20.01 ЮВ 8 н/о н/о +32.0 +7.0 21 +30 +30 жарко 1015.1 989.7
02 20.01 В 7 н/о н/о +36.3 +7.4 17 +34 +34 очень
жарко
1014.7 989.3
01 20.01 В 8 н/о н/о +34.4 +6.7 18 +32 +32 жарко 1014.8 989.4
03 20.01 ЮВ 7 н/о н/о +38.2 +6.0 14 +36 +36 очень
жарко
1013.7 988.3
04 20.01 ЮВ 7 н/о н/о +39.1 +6.7 14 +37 +37 очень
жарко
1012.9 987.6
05 20.01 Ю 3 н/о н/о +39.4 +7.0 14 +37 +37 очень
жарко
1012.5 987.2
06 20.01 Ю 6 н/о н/о +40.0 +6.4 13 +37 +37 очень
жарко
1011.7 986.4
08 20.01 ЮВ 7 н/о н/о +38.8 +5.4 13 +36 +36 очень
жарко
1011.1 985.8
07 20.01 Ю 6 н/о н/о +39.5 +6.0 13 +37 +37 очень
жарко
1011.4 986.1
09 20.01 Ю 11 н/о н/о +37.7 +6.6 15 +35 +35 очень
жарко
1011.5 986.2
10 20.01 Ю 11 н/о н/о +36.2 +8.9 19 +35 +35 очень
жарко
1012.5 987.2
11 20.01 ЮВ 9 н/о н/о +35.1 +8.8 20 +34 +34 очень
жарко
1013.3 987.9
12 20.01 ЮВ 9 н/о н/о +34.1 +8.7 21 +33 +33 жарко 1013.4 988.0
14 20.01 ЮВ 7 н/о н/о +32.7 +8.2 22 +31 +31 жарко 1013.3 987.9
13 20.01 ЮВ 9 н/о н/о +33.4 +8.1 21 +32 +32 жарко 1013.3 987.9
15 20.01 ЮВ 6 н/о н/о +31.8 +8.1 23 +31 +31 жарко 1012.7 987.4
16 20.01 ЮВ 7 н/о н/о +31.0 +9.3 26 +30 +30 жарко 1012.0 986.7
17 20.01 Ю 8 н/о н/о +30.0 +9.5 28 +30 +30 жарко 1011.5 986.2
18 20.01 ЮВ 8 н/о н/о +29.3 +9.4 29 +29 +29 жарко 1010.7 985.4
20 20.01 ЮВ 6 н/о н/о +28.0 +8.8 30 +28 +28 жарко 1011.2 985.9
19 20.01 ЮВ 7 н/о н/о +28.6 +9.3 30 +29 +29 жарко 1010.5 985.2
21 20.01 ЮВ 7 н/о н/о +28.3 +8.6 29 +28 +28 жарко 1011.7 986.4
22 20.01 В 8 н/о н/о +30.6 +7.1 23 +29 +29 жарко 1012.0 986.7
23 20.01 В 7 н/о н/о +31.8 +6.1 20 +30 +30 жарко 1012.5 987.2
00 21.01 В 6 н/о н/о +34.0 +4.6 16 +31 +31 жарко 1012.9 987.6
02 21.01 В 6 н/о н/о +37.5 +3.3 12 +34 +34 очень
жарко
1011.6 986.3
01 21.01 ЮВ 6 н/о н/о +36.1 +3.3 13 +33 +33 жарко 1012.7 987.4
03 21.01 В 6 н/о н/о +39.3 +4.7 12 +36 +36 очень
жарко
1011.2 985.9
04 21.01 В 6 н/о н/о +40.0 +5.2 12 +37 +37 очень
жарко
1010.6 985.3
05 21.01 Ю 5 н/о н/о +40.7 +5.7 12 +38 +38 очень
жарко
1009.9 984.6
06 21.01 Ю 4 н/о н/о +40.1 +5.3 12 +37 +37 очень
жарко
1009.3 984.0
08 21.01 ЮВ 6 н/о н/о +40.9 +7.1 13 +38 +38 очень
жарко
1007.9 982.7
07 21.01 Ю 8 н/о н/о +40.8 +8.1 14 +39 +39 очень
жарко
1008.2 983.0
09 21.01 В 7 н/о н/о +40.4 +5.5 12 +38 +38 очень
жарко
1008.2 983.0
10 21.01 ЮВ 8 н/о н/о +38.6 +9.2 17 +37 +37 очень
жарко
1008.6 983.4
11 21.01 ЮВ 8 н/о н/о +37.2 +9.7 19 +36 +36 очень
жарко
1009.6 984.3
12 21.01 ЮВ 8 н/о н/о +36.0 +10.2 21 +35 +35 очень
жарко
1010.0 984.7
14 21.01 ЮВ 7 н/о н/о +34.0 +9.9 23 +33 +33 жарко 1009.7 984.4
13 21.01 ЮВ 7 н/о н/о +35.0 +10.1 22 +34 +34 очень
жарко
1009.9 984.6
15 21.01 ЮВ 5 н/о н/о +33.0 +9.7 24 +32 +32 жарко 1009.2 983.9
16 21.01 ЮВ 5 н/о н/о +32.0 +9.5 25 +31 +31 жарко 1008.5 983.3
17 21.01 ЮВ 5 н/о н/о +31.3 +8.9 25 +30 +30 жарко 1008.2 983.0
18 21.01 В 6 н/о н/о +31.4 +7.1 22 +30 +30 жарко 1007.9 982.7
20 21.01 В 6 н/о н/о +30.6 +8.3 25 +30 +30 жарко 1008.4 983.2
19 21.01 В 5 н/о н/о +31.0 +8.1 24 +30 +30 жарко 1008.0 982.8
21 21.01 В 6 н/о н/о +30.3 +8.1 25 +29 +29 жарко 1008.9 983.7
22 21.01 В 7 н/о н/о +32.5 +7.4 21 +31 +31 жарко 1009.6 984.3
23 21.01 ЮВ 7 н/о н/о +33.7 +7.6 20 +32 +32 жарко 1010.5 985.2
00 22.01 ЮВ 5 н/о н/о +36.9 +6.0 15 +34 +34 очень
жарко
1010.4 985.1
02 22.01 В 7 н/о н/о +40.7 +5.7 12 +38 +38 очень
жарко
1009.2 983.9
01 22.01 В 7 н/о н/о +39.4 +5.9 13 +37 +37 очень
жарко
1009.9 984.6
03 22.01 В 6 н/о н/о +43.0 +4.9 10 +40 +40 очень
жарко
1008.2 983.0
04 22.01 В 3 н/о н/о +42.3 +5.7 11 +40 +40 очень
жарко
1007.5 982.3
05 22.01 В 3 н/о н/о +43.3 +5.1 10 +40 +40 очень
жарко
1006.7 981.5
06 22.01 СВ 3 н/о н/о +44.5 +4.5 9 +41 +41 опасность
перегрева
1006.1 980.9
08 22.01 СВ 3 н/о н/о +43.5 +5.2 10 +41 +41 опасность
перегрева
1004.7 979.6
07 22.01 Ю 2 н/о н/о +43.8 +5.5 10 +41 +41 опасность
перегрева
1005.2 980.0
09 22.01 В 3 н/о н/о +43.0 +4.9 10 +40 +40 очень
жарко
1005.0 979.9
10 22.01 В 8 н/о н/о +41.2 +6.1 12 +39 +39 очень
жарко
1006.1 980.9
11 22.01 ЮВ 6 н/о н/о +40.0 +6.4 13 +37 +37 очень
жарко
1006.4 981.2
12 22.01 СЗ 9 н/о н/о +37.6 +10.0 19 +36 +36 очень
жарко
1007.4 982.2
14 22.01 С 7 н/о н/о +35.1 +10.9 23 +34 +34 очень
жарко
1009.3 984.0
13 22.01 СВ 8 н/о н/о +35.9 +10.2 21 +35 +35 очень
жарко
1010.4 985.1
15 22.01 СВ 6 н/о н/о +35.0 +10.1 22 +34 +34 очень
жарко
1008.2 983.0
16 22.01 С 7 н/о н/о +36.9 +7.8 17 +35 +35 очень
жарко
1007.3 982.1
17 22.01 С 5 н/о н/о +35.9 +8.7 19 +34 +34 очень
жарко
1006.7 981.5
18 22.01 СВ 7 н/о н/о +33.6 +10.2 24 +33 +33 жарко 1007.7 982.5
20 22.01 СЗ 4 н/о н/о +34.1 +10.0 23 +33 +33 жарко 1007.4 982.2
19 22.01 СЗ 6 н/о н/о +34.2 +10.7 24 +34 +34 очень
жарко
1007.3 982.1
21 22.01 С 3 н/о н/о +35.1 +9.5 21 +34 +34 очень
жарко
1007.8 982.6
22 22.01 СВ 5 н/о н/о +39.0 +7.7 15 +37 +37 очень
жарко
1007.7 982.5
23 22.01 В 7 н/о н/о +39.7 +7.2 14 +37 +37 очень
жарко
1007.6 982.4
00 23.01 В 8 н/о н/о +41.6 +6.4 12 +39 +39 очень
жарко
1007.6 982.4
02 23.01 СВ 5 н/о н/о +43.1 +7.6 12 +41 +41 опасность
перегрева
1006.9 981.7
01 23.01 СВ 6 н/о н/о +42.2 +6.9 12 +40 +40 очень
жарко
1007.4 982.2
03 23.01 СЗ 4 н/о н/о +44.0 +7.0 11 +42 +42 опасность
перегрева
1006.5 981.3
04 23.01 СЗ 3 н/о н/о +44.0 +7.0 11 +42 +42 опасность
перегрева
1005.5 980.3
05 23.01 С 1 н/о н/о +45.1 +7.8 11 +43 +43 опасность
перегрева
1004.6 979.5
06 23.01 С 7 н/о н/о +40.5 +7.8 14 +38 +38 очень
жарко
1005.3 980.1
08 23.01 ЮЗ 5 н/о н/о +41.5 +8.6 14 +39 +39 очень
жарко
1004.0 978.9
07 23.01 Ю 8 н/о н/о +40.8 +8.1 14 +39 +39 очень
жарко
1004.5 979.4
09 23.01 ЮЗ 4 н/о н/о +41.6 +6.4 12 +39 +39 очень
жарко
1003.8 978.7
10 23.01 ЮВ 2 н/о н/о +41.0 +6.0 12 +38 +38 очень
жарко
1004.2 979.1
11 23.01 СВ 8 н/о н/о +36.8 +11.6 22 +36 +36 очень
жарко
1005.2 980.0
12 23.01 СВ 7 н/о н/о +36.3 +9.8 20 +35 +35 очень
жарко
1005.6 980.4
14 23.01 СВ 5 н/о н/о +35.1 +8.8 20 +34 +34 очень
жарко
1005.5 980.3
13 23.01 СВ 5 н/о н/о +34.9 +10.0 22 +34 +34 очень
жарко
1005.6 980.4
15 23.01 СВ 5 н/о н/о +34.1 +8.7 21 +33 +33 жарко 1004.9 979.8
16 23.01 С 4 н/о н/о +32.5 +9.3 24 +32 +32 жарко 1004.3 979.2
17 23.01 СВ 7 н/о н/о +32.5 +8.7 23 +31 +31 жарко 1004.7 979.6
18 23.01 СВ 5 н/о н/о +31.4 +8.4 24 +30 +30 жарко 1004.6 979.5
20 23.01 В 4 н/о н/о +31.0 +7.5 23 +30 +30 жарко 1004.6 979.5
19 23.01 С 5 н/о н/о +31.2 +8.2 24 +30 +30 жарко 1004.4 979.3
21 23.01 СВ 5 н/о н/о +31.9 +8.2 23 +31 +31 жарко 1005.2 980.0
22 23.01 СВ 5 н/о н/о +34.2 +8.8 21 +33 +33 жарко 1005.6 980.4

 

Местоположение метеостанции Кубер-Педи (Южная Австралия, Австралия): широта -29.03 долгота 134.71 высота над уровнем моря 226 м.

В архиве по умолчанию представлена погода в Кубер-Педи за последнюю неделю. Архивные данные за месяц целиком и за предыдущие месяцы, начиная с января 2011 года, Вы можете получить, выбрав интересующий диапазон дат из раскрывающегося списка и нажав кнопку "Ввод!".


*Определитесь, кто Вы:
робот инопланетянин человек

Внимание! Время в таблицах - всемирное. Для получения местного времени необходимо прибавить поправку, которая равна 9.5 ч.

Смотрите также архив погоды в соседних городах и на ближайших метеорологических станциях:

Погода в Однадатте (Южная Австралия, Австралия) (180 км)
Погода в Таркуле (Южная Австралия, Австралия) (188 км)
Погода в Олимпик Дэм (Южная Австралия, Австралия) (264 км)
Погода на Аэродроме Вумера (Южная Австралия, Австралия) (311 км)
Погода в Марри (Южная Австралия, Австралия) (332 км)
Погода в Сидуне (Южная Австралия, Австралия) (358 км)
Погода в Эрнабелле (Южная Австралия, Австралия) (395 км)
Погода в Ли-Крике (Южная Австралия, Австралия) (398 км)
Погода в Миннипа Пирса (Южная Австралия, Австралия) (427 км)
Погода в Уудинне (Южная Австралия, Австралия) (453 км)

Пояснения к столбцам:

Ветер - указаны скорость ветра в м/с - средняя за 10 мин, порывы в срок и между сроками (в фигурных скобках) и направление, откуда дует ветер: С - северный, СВ - северо-восточный, В - восточный, ЮВ - юго-восточный, Ю - южный, ЮЗ - юго-западный, З - западный, СЗ - северо-западный.
Видимость - горизонтальная дальность видимости в метрах или километрах. При видимости от 1 до 10 км при отсутствии осадков обычно наблюдается дымка, при ухудшении видимости до 1 км и менее - туман. В сухую погоду видимость может ухудшаться дымом, пылью или мглою.
Явления - указаны атмосферные явления, наблюдавшиеся в срок или в последний час перед сроком; фигурными скобками обозначены явления, наблюдавшиеся между сроками (за 1-3 часа до срока); квадратными скобками обозначены град или гололедные отложения с указанием их диаметра в мм.
Облачность - указаны через наклонную черту общая и нижняя облачность в баллах и высота нижней границы облаков в метрах; квадратными скобками обозначены формы облаков: Ci - перистые, Cs - перисто-слоистые, Cc - перисто-кучевые, Ac - высококучевые, As - высокослоистые, Sc - слоисто-кучевые, Ns - слоисто-дождевые, Cu - кучевые, Cb - кучево-дождевые. Подробнее классификацию облаков см. в Атласе облаков (PDF).
T - Температура воздуха - температура, измеренная на высоте 2 м над землей.
Td - Температура точки росы - температура, при понижении до которой содержащийся в воздухе водяной пар достигнет насыщения.
f - Относительная влажность воздуха - влажноcть воздуха, измеренная на высоте 2 м над землей.
Te - Эффективная температура - температура, которую ощущает одетый по сезону человек в тени. Характеристика душности погоды. При расчете учитывается влияние влажности воздуха и скорости ветра на теплоощущения человека.
Tes - Эффективная температура на солнце - температура, которую ощущает человек, с поправкой на солнечный нагрев. Характеристика знойности погоды. Зависит от высоты солнца над горизонтом, облачности и скорости ветра. Ночью, в пасмурную погоду, а также при ветре 12 м/с и более поправка равна нулю.
P - Атмосферное давление - приведенное к уровню моря атмосферное давление.
Po - Атмосферное давление - измеренное на уровне метеостанции атмосферное давление.
Tmin - Минимальная температура - минимум температуры воздуха на высоте 2 м над землей.
Tmax - Максимальная температура - максимум температуры воздуха на высоте 2 м над землей.
R - Количество осадков - Количество выпавших осадков за период времени, мм. При наведении курсора мыши на число - период времени, за который выпало указанное количество осадков.
R24 - Количество осадков - Количество выпавших осадков за 24 часа, мм.
S - Снежный покров - Высота снежного покрова, см. При наведении курсора мыши на число - состояние снежного покрова и степень покрытия местности в баллах.